Location: Dittelbrunn
(50.0738°N, 10.2196°E)
Time: 14:26:36
(UTC+00:00)

CZ-2C R/B - Pass Details

Date: 18 September 2020
Orbit: 704 x 908 km, 98.1° (Epoch: 27 October)

Event Time Altitude Azimuth Distance (km) Brightness Sun altitude
Rises 17:57:02 0° 161° (SSE) 3,253 6.0 -5.9°
Reaches altitude 10° 17:59:17 10° 161° (SSE) 2,358 5.3 -6.3°
Maximum altitude 18:04:31 83° 74° (ENE) 840 3.2 -7.1°
Drops below altitude 10° 18:10:07 10° 347° (NNW) 2,508 6.0 -8.0°
Sets 18:12:34 0° 347° (NNW) 3,476 6.8 -8.3°
